This site uses a module created by best online poker sites.

BSB police report for January 8, 2019

Print
"01/07/2019","00:18","219CR0000451","SUSPICIOUS ACTIVITY","SUSPICIOUS ACTIVITY","AMHERST AND CONTINENTAL","",""
"01/07/2019","00:25","219CR0000452","BUSINESS CHECK","BUSINESS CHECK","1370 HARRISON","",""
"01/07/2019","00:28","219CR0000453","VANDALISM/CRIMINAL MISCHIEF","VANDALISM/CRIMINAL MISCHIEF","2009 HARRISON","",""
"01/07/2019","00:49","219CR0000454","DISTURBANCE","DISTURBANCE","1205 S MONTANA ROOM #2","",""
"01/07/2019","01:00","219CR0000455","MEDICAL - EMERGENCY","MEDICAL - EMERGENCY","25 E GRANITE #310","",""
"01/07/2019","02:37","219CR0000456","BUSINESS CHECK","BUSINESS CHECK","58 W PARK","",""
"01/07/2019","04:31","219CR0000457","UNWANTED PERSON","UNWANTED PERSON","************","",""
"01/07/2019","06:39","219CR0000458","ACCIDENT-MHP","ACCIDENT-MHP","I 15 MM 134 N BND","",""
"01/07/2019","07:26","219CR0000460","SUSPICIOUS ACTIVITY","SUSPICIOUS ACTIVITY","949 S MONTANA","",""
"01/07/2019","07:29","219CR0000459","MEDICAL - EMERGENCY","MEDICAL - EMERGENCY","3000 CONT DR/HILLCREST SCHOOL","",""
"01/07/2019","08:04","219CR0000461","CIVIL PAPER SERVICE","CIVIL PAPER SERVICE","3434 CARTER ST","",""
"01/07/2019","08:13","219CR0000462","CIVIL PAPER SERVICE","CIVIL PAPER SERVICE","2010 MONROE AVE","",""
"01/07/2019","08:14","219CR0000463","CIVIL PAPER SERVICE","CIVIL PAPER SERVICE","625 13TH ST","",""
"01/07/2019","08:22","219CR0000464","CIVIL PAPER SERVICE","CIVIL PAPER SERVICE","601 S IDAHO","",""
"01/07/2019","08:28","219CR0000465","T/S","T/S","FRONT AND ATLANTIC","",""
"01/07/2019","08:29","219CR0000466","CIVIL PAPER SERVICE","CIVIL PAPER SERVICE","1408 HOBSON","",""
"01/07/2019","08:32","219CR0000467","T/S","T/S","DEWEY AND HILL","",""
"01/07/2019","08:33","219CR0000468","CIVIL PAPER SERVICE","CIVIL PAPER SERVICE","934 HORNET","",""
"01/07/2019","08:37","219CR0000469","WELFARE CHECK","WELFARE CHECK","901 S WASHINGTON #14","",""
"01/07/2019","08:41","219CR0000470","CIVIL PAPER SERVICE","CIVIL PAPER SERVICE","1315 IOWA","",""
"01/07/2019","08:43","219CR0000471","CIVIL PAPER SERVICE","CIVIL PAPER SERVICE","1805 FLORIDA AVE","",""
"01/07/2019","08:44","219CR0000472","CIVIL PAPER SERVICE","CIVIL PAPER SERVICE","2215 S WARREN","",""
"01/07/2019","08:58","219CR0000473","CIVIL PAPER SERVICE","CIVIL PAPER SERVICE","600 S MAIN ST","",""
"01/07/2019","08:59","219CR0000474","T/S","T/S","PORPHYRY AND MONTANA ST","",""
"01/07/2019","09:08","219CR0000476","CIVIL PAPER SERVICE","CIVIL PAPER SERVICE","8 W FRONT ST","",""
"01/07/2019","09:08","219CR0000475","CIVIL PAPER SERVICE","CIVIL PAPER SERVICE","620 S DAKOTA","",""
"01/07/2019","09:14","219CR0000477","T/S","T/S","PARK AND WESTERN","",""
"01/07/2019","09:15","219CR0000478","CIVIL PAPER SERVICE","CIVIL PAPER SERVICE","600 S MAIN ST","",""
"01/07/2019","09:17","219CR0000479","HARASSMENT","HARASSMENT","1125 S MAIN APT 101","",""
"01/07/2019","09:18","219CR0000480","ALARM - BURGLARY","ALARM - BURGLARY","************","",""
"01/07/2019","09:25","219CR0000481","MEDICAL - EMERGENCY","MEDICAL - EMERGENCY","228 TRINITY LOOP","",""
"01/07/2019","09:26","219CR0000482","THEFT","THEFT OF VEHICLE PARTS/ACCESSO","508 SILVER BOW HOMES","",""
"01/07/2019","09:50","219CR0000483","T/S","T/S","WESTERN AND PARK","",""
"01/07/2019","09:53","219CR0000484","MEDICAL - EMERGENCY","MEDICAL - EMERGENCY","3033 BUSCH #27","",""
"01/07/2019","10:14","219CR0000485","THEFT","THEFT FROM MOTOR VEHICLE","1370 HARRISON","",""
"01/07/2019","10:15","219CR0000486","THEFT","THEFT, SHOPLIFT","3901 HARRISON AVE","",""
"01/07/2019","10:45","219CR0000487","T/S","T/S","WESTERN AND PARK","",""
"01/07/2019","10:52","219CR0000488","T/S","T/S","PARK AND EXCELSIOR","",""
"01/07/2019","10:58","219CR0000489","DETENTION BUSINESS","DETENTION BUSINESS","************","",""
"01/07/2019","11:14","219CR0000491","THEFT","THEFT","155 W QUARTZ","",""
"01/07/2019","11:17","219CR0000492","WELFARE CHECK","WELFARE CHECK","1806 GRAND AVE","",""
"01/07/2019","11:22","219CR0000493","THEFT","THEFT FROM MOTOR VEHICLE","225 ALASKA ST","",""
"01/07/2019","11:52","219CR0000494","MEDICAL - EMERGENCY","MEDICAL - EMERGENCY","322 N JACKSON #B","",""
"01/07/2019","11:54","219CR0000495","WELFARE CHECK","WELFARE CHECK","205 W GRANITE #204","",""
"01/07/2019","12:17","219CR0000497","T/S","T/S","PARK AND ARIZONA","",""
"01/07/2019","12:28","219CR0000498","THEFT","THEFT","502 1/2 S COLORADO","",""
"01/07/2019","12:32","219CR0000499","CIVIL PAPER SERVICE","CIVIL PAPER SERVICE","1315 IOWA","",""
"01/07/2019","12:34","219CR0000500","CIVIL PAPER SERVICE","CIVIL PAPER SERVICE","2719 GRAND AVE","",""
"01/07/2019","12:37","219CR0000501","JUVENILE MISC","JUVENILE MISC","************","",""
"01/07/2019","12:41","219CR0000502","CIVIL PAPER SERVICE","CIVIL PAPER SERVICE","2825 FARRAGUT E201","",""
"01/07/2019","12:44","219CR0000503","CITIZEN AID","CITIZEN AID","1812 A ST","",""
"01/07/2019","12:54","219CR0000504","CIVIL PAPER SERVICE","CIVIL PAPER SERVICE","4800 HARRISON # 12","",""
"01/07/2019","13:00","219CR0000505","THEFT","THEFT","2107 CORNELL DAYS INN","",""
"01/07/2019","13:02","219CR0000506","CIVIL PAPER SERVICE","CIVIL PAPER SERVICE","2302 PRINCETON","",""
"01/07/2019","13:10","219CR0000507","CIVIL PAPER SERVICE","CIVIL PAPER SERVICE","2302 PRINCETON","",""
"01/07/2019","13:16","219CR0000508","DETENTION BUSINESS","DETENTION BUSINESS","************","",""
"01/07/2019","13:17","219CR0000509","T/S","T/S","1301 HARRISON STOKES MARKET","",""
"01/07/2019","13:21","219CR0000510","T/S","CRIMINAL CONTEMPT","3200 DEXTER ST","ARREST(s) MADE",""
"01/07/2019","14:25","219CR0000512","ACCIDENT","ACCIDENT","MEADE ST AND HARVARD ST","",""
"01/07/2019","14:30","219CR0000513","CIVIL PAPER SERVICE","CIVIL PAPER SERVICE","3901 HARRISON AVE","",""
"01/07/2019","14:31","219CR0000514","DETENTION BUSINESS","DETENTION BUSINESS","************","",""
"01/07/2019","14:57","219CR0000515","WELFARE CHECK","OUT OF JURISDICTION HOLD","GRANITE AND IDAHO","ARREST(s) MADE",""
"01/07/2019","15:02","219CR0000516","SUSPICIOUS ACTIVITY","SUSPICIOUS ACTIVITY","CRYSTAL ST AND PARK ST","",""
"01/07/2019","15:13","219CR0000517","ATL","ATL","1005 WAUKESHA","",""
"01/07/2019","15:45","219CR0000518","T/S","T/S","HARRISON AND GRAND AVE","",""
"01/07/2019","15:48","219CR0000519","THEFT","THEFT, SHOPLIFT","3901 HARRISON AVE","",""
"01/07/2019","16:12","219CR0000520","THEFT","THEFT, SHOPLIFT","3901 HARRISON","",""
"01/07/2019","16:17","219CR0000521","SUSPICIOUS ACTIVITY","SUSPICIOUS ACTIVITY","1925 DEWEY BLVD","",""
"01/07/2019","16:54","219CR0000522","THEFT","THEFT, ALL OTHERS","1300 W PARK ST","",""
"01/07/2019","17:03","219CR0000523","LED BUSINESS","LED BUSINESS","400 S CLARK","",""
"01/07/2019","17:13","219CR0000524","THEFT","THEFT, ALL OTHERS","4655 HARRISON AVE","",""
"01/07/2019","17:23","219CR0000525","HIT AND RUN","HIT AND RUN","3031 BURLINGTON","",""
"01/07/2019","18:11","219CR0000526","CIVIL PAPER SERVICE","CIVIL PAPER SERVICE","3901 HARRISON","",""
"01/07/2019","18:50","219CR0000527","MEDICAL - EMERGENCY","MEDICAL - EMERGENCY","2106 ELM","",""
"01/07/2019","19:01","219CR0000528","ALARM-DURESS","ALARM-DURESS","************","",""
"01/07/2019","20:03","219CR0000529","THEFT","THEFT FROM MOTOR VEHICLE","4040 PAXSON","",""
"01/07/2019","20:14","219CR0000530","SUSPICIOUS ACTIVITY","SUSPICIOUS ACTIVITY","MONTANA AND WOOLMAN","",""
"01/07/2019","20:19","219CR0000531","JUVENILE MISC","JUVENILE MISC","************","",""
"01/07/2019","20:21","219CR0000532","SUICIDE ATTEMPT/THREAT","SUICIDE ATTEMPT/THREAT","************","",""
"01/07/2019","20:21","219CR0000533","MEDICAL - EMERGENCY","MEDICAL - EMERGENCY","50 W BROADWAY #401","",""
"01/07/2019","21:38","219CR0000534","WELFARE CHECK","WELFARE CHECK","2167 S WARREN AVE","",""
"01/07/2019","22:22","219CR0000535","CITIZEN AID","CITIZEN AID","400 S CLARK","",""
"01/07/2019","22:25","219CR0000536","SUSPICIOUS ACTIVITY","SUSPICIOUS ACTIVITY","2708 S MONTANA ST","",""
"01/07/2019","22:38","219CR0000537","VANDALISM/CRIMINAL MISCHIEF","VANDALISM/CRIMINAL MISCHIEF","1932 OREGON","",""
"01/07/2019","23:47","219CR0000538","MEDICAL - EMERGENCY","MEDICAL - EMERGENCY","1901 ROOSEVELT AVE","",""
"01/08/2019","00:18","219CR0000539","SUSPICIOUS ACTIVITY","SUSPICIOUS ACTIVITY","ALUMINUM AND DAKOTA","",""
"01/08/2019","01:43","219CR0000540","SUSPICIOUS ACTIVITY","SUSPICIOUS ACTIVITY","56 E BROADWAY","",""
"01/08/2019","02:09","219CR0000541","SUSPICIOUS ACTIVITY","POSSESSION OF DANGEROUS DRUGS","OREGON AND SCHLEY","ARREST(s) MADE",""
"01/08/2019","02:31","219CR0000542","MEDICAL - EMERGENCY","MEDICAL - EMERGENCY","2650 MEADOWBROOK","",""
"01/08/2019","02:41","219CR0000543","SUSPICIOUS ACTIVITY","SUSPICIOUS ACTIVITY","300 BLK S IDAHO","",""
"01/08/2019","03:34","219CR0000544","DISTURBANCE-NOISE","DISTURBANCE-NOISE","714 W PARK","",""
"01/08/2019","03:41","219CR0000545","ALARM - BURGLARY","ALARM - BURGLARY","************","",""
"01/08/2019","03:55","219CR0000546","ALARM - BURGLARY","ALARM - BURGLARY","************","",""
"01/08/2019","04:38","219CR0000547","ALARM - BURGLARY","ALARM - BURGLARY","************","",""
"01/08/2019","04:46","219CR0000548","MEDICAL - EMERGENCY","MEDICAL - EMERGENCY","201 HOBSON #16","",""
"01/08/2019","05:30","219CR0000549","CITIZEN AID","CITIZEN AID","1000 GRIZZLEY TRAIL","",""
"01/08/2019","06:06","219CR0000550","MEDICAL - EMERGENCY","MEDICAL - EMERGENCY","1951 GAYLORD ST","",""
"01/08/2019","06:47","219CR0000551","VANDALISM/CRIMINAL MISCHIEF","VANDALISM/CRIMINAL MISCHIEF","220 N WYOMING","",""
 
Thursday the 21st. Affiliate Marketing.
Copyright 2012

©